Regional Weather Roundup
Issued by NWS

Home | Current Version | Previous Version | Graphics & Text | Print | Product List | Glossary On
Versions: 1 2 3 4 5 6 7 8 9 10 11 12 13 14 15 16 17 18 19 20 21 22 23 24 25 26 27 28 29 30 31 32 33 34 35 36 37 38 39 40 41 42 43 44 45 46 47 48 49 50
000
ASUS43 KMKX 012311
RWRWI

WISCONSIN REGIONAL WEATHER ROUNDUP
NATIONAL WEATHER SERVICE MILWAUKEE/SULLIVAN WI
600 PM CDT MON SEP 01 2014

NOTE: "FAIR" INDICATES FEW OR NO CLOUDS BELOW 12,000 FEET WITH NO
SIGNIFICANT WEATHER AND/OR OBSTRUCTIONS TO VISIBILITY.

WIZ001-002-006>008-014>016-023>028-020000-
NORTHWEST WISCONSIN

CITY           SKY/WX    TMP DP  RH WIND       PRES   REMARKS
SUPERIOR ARPT  SUNNY     72  53  51 W9        29.69S
ASHLAND        MOSUNNY   71  59  65 W8        29.69R
HAYWARD        MOSUNNY   71  55  56 VRB3      29.73R
SIREN          SUNNY     73  51  46 W9        29.74R
RICE LAKE      MOSUNNY   72  53  51 W13       29.76R
LADYSMITH      SUNNY     72  53  51 W14G20    29.76R
EAU CLAIRE     SUNNY     73  56  54 W13       29.74R
MENOMONIE      CLEAR     75  52  44 W13       29.75S
NEW RICHMOND   SUNNY     73  52  47 W8        29.76S
OSCEOLA        SUNNY     73  55  52 W12       29.77S
$$

WIZ003>005-009-010-017-018-020000-
NORTH CENTRAL WISCONSIN

CITY           SKY/WX    TMP DP  RH WIND       PRES   REMARKS
WOODRUFF       SUNNY     72  58  61 NW12      29.71R
RHINELANDER    SUNNY     70  54  56 W13       29.72R
EAGLE RIVER    MOSUNNY   68  54  60 W8        29.69S
LAND O LAKES   SUNNY     69  57  66 NW9       29.71R
PHILLIPS       CLOUDY    70  56  61 W7        29.72R
TOMAHAWK       MOSUNNY   69  55  60 W9G16     29.73R
MEDFORD        MOSUNNY   67  57  70 W9        29.75R
MERRILL        SUNNY     72  55  56 W13G18    29.73R
$$

WIZ029-030-035-036-043>047-020000-
CENTRAL WISCONSIN

CITY           SKY/WX    TMP DP  RH WIND       PRES   REMARKS
WAUSAU         SUNNY     73  58  59 W12G22    29.72R
MOSINEE        SUNNY     72  57  60 W14G20    29.74R
MARSHFIELD     SUNNY     73  58  59 NW12      29.74R
STEVENS POINT  MOSUNNY   72  58  61 W9G20     29.73R
WAUPACA        SUNNY     77  63  61 W7        29.72R
WAUTOMA        LGT RAIN  74  65  73 W10       29.74R
WISC RAPIDS    SUNNY     75  61  61 W9        29.74R
CAMP DOUGLAS   SUNNY     74  66  75 W10       29.76R
$$

WIZ011>013-019>022-031-037>040-048>050-020000-
NORTHEAST WISCONSIN

CITY           SKY/WX    TMP DP  RH WIND       PRES   REMARKS
ANTIGO         SUNNY     70  58  66 W12       29.72R
STURGEON BAY   MOSUNNY   73  64  73 SW14      29.68R
GREEN BAY      MOSUNNY   75  65  70 W9        29.69R
MANITOWOC      PTSUNNY   75  66  73 W14       29.70R
APPLETON       PTSUNNY   73  63  68 W13       29.71R
CLINTONVILLE   SUNNY     73  61  64 W12       29.69S
OSHKOSH        CLOUDY    73  66  78 W8        29.72R
$$

WIZ032>034-041-042-053>061-020000-
SOUTHWEST WISCONSIN

CITY           SKY/WX    TMP DP  RH WIND       PRES   REMARKS
LA CROSSE      SUNNY     79  59  50 NW10      29.75R HX  80
SPARTA         SUNNY     75  59  56 W8G16     29.76R
VIROQUA        FAIR      73  62  69 W6        29.79R
BOSCOBEL       SUNNY     78  61  55 NW8       29.78R HX  80
PRAIRIE DU CHI SUNNY     78  58  50 W13       29.78R
PLATTEVILLE    FAIR      76  64  67 W14       29.81R
$$

WIZ056-057-062-063-064-067-068-020000-
SOUTH CENTRAL WISCONSIN

CITY           SKY/WX    TMP DP  RH WIND       PRES   REMARKS
BARABOO/DELLS  PTSUNNY   71  61  70 CALM      29.77R
LONE ROCK      SUNNY     80  59  48 W13       29.76R HX  81
WATERTOWN      MOSUNNY   75  66  73 W9        29.75S
MADISON        PTSUNNY   74  67  78 VRB6      29.75R
MIDDLETON      FAIR      76  66  70 W9        29.76S
MONROE         MOSUNNY   73  66  78 W13       29.78R
JANESVILLE     PTSUNNY   79  63  57 W12       29.75R HX  80
$$

WIZ051-052-058>065-066-070>072-020000-
SOUTHEAST WISCONSIN

CITY           SKY/WX    TMP DP  RH WIND       PRES   REMARKS
MILWAUKEE      PTSUNNY   80  63  55 W13       29.73R HX  81
WAUKESHA       PTSUNNY   73  63  68 SW15G23   29.75R
MILWAUKEE/TIMM MOSUNNY   77  61  57 W13G20    29.74R
RACINE         MOSUNNY   80  65  59 W10G17    29.75R HX  82
BURLINGTON     SUNNY     77  64  63 W8        29.75R
KENOSHA        MOSUNNY   79  67  66 SW10      29.75R HX  81
FOND DU LAC    CLOUDY    69  61  75 W12G21    29.74R
SHEBOYGAN      MOSUNNY   76  65  68 SW13      29.71R
WEST BEND      MOSUNNY   73  61  64 SW13G18   29.73R
JUNEAU         PTSUNNY   69  64  82 W6G17     29.76R
$$

LSZ147-162-020000-
LAKE SUPERIOR

STATION/POSITION TIME  TEMP    WIND        PRES    WAVE
                       AIR SEA DIR/SP/G            HT/PER
                 (UTC) (F)     (DEG/KT/KT) (MB)    (FT/S)
W MID LAKE BUOY  2250   61 57  240/ 14/ 16 1003.0R   2/ 4
DEVILS ISLAND    2300   66     240/ 14/ 16 1004.2R
PORT WING        2200   71     250/  9/ 13 1004.7
SAXON HARBOR     2200   71     280/  4/ 10 1005.1R
$$

LMZ867-665-643>646-020000-
LAKE MICHIGAN

STATION/POSITION TIME  TEMP    WIND        PRES    WAVE
                       AIR SEA DIR/SP/G            HT/PER
                 (UTC) (F)     (DEG/KT/KT) (MB)    (FT/S)
N MID LAKE BUOY  2250   67 65  220/ 12/ 16 1003.6R   2/ 6
NORTHPORT PIER   2200   74     240/  4/ 12 1003.7R
KEWAUNEE LAKESHO 2200   75     260/ 11/ 16 1003.7F
SHEBOYGAN LAKESH 2300   76 55  250/ 13/ 14 1005.8R
ATWATER BUOY     2200   74     240/ 17/ 21 1007.3R
MILWAUKEE LAKESH 2200   80     270/ 16/ 24   N/A
S MID LAKE BUOY  2250   73 70  220/ 10/ 10 1007.1R   2/ 3
KENOSHA   LAKESH 2300   81     240/  9/ 14 1006.8S
$$

TC  - TEMPERATURE IN CELSIUS
VSB - VISIBILITY IN STATUTE MILES
WCI - WIND CHILL INDEX
HX  - HEAT INDEX




USA.gov is the U.S. government's official web portal to all federal, state and local government web resources and services.